Newport News, VA

12:25 AM EST on February 22, 2017 (GMT -0500)
Newport News-Williamsburg International

Weather History for KPHF - November, 2011

Change the Weather History Date:

Sunday, November 13, 2011

  Actual Average Record
Temperature  
Mean Temperature 56 °F -  
Max Temperature 66 °F 59 °F 79 °F (1949)
Min Temperature 45 °F 42 °F 24 °F (1996)
Degree Days  
Heating Degree Days 10    
Growing Degree Days 6 (Base 50)    
Moisture  
Dew Point 39 °F    
Average Humidity 56    
Maximum Humidity 77    
Minimum Humidity 27    
Precipitation  
Precipitation 0.00 in - - ()
Sea Level Pressure  
Sea Level Pressure 30.18 in    
Wind  
Wind Speed 11 mph (SW)    
Max Wind Speed 20 mph    
Max Gust Speed 29 mph    
Visibility 10 miles    
Events      
Averages and records for this station are not official NWS values.
T = Trace of Precipitation, MM = Missing Value Source: NWS Daily Summary

Daily Weather History Graph

Daily Weather History Graph

Search for Another Location

Airport or City:

Trip Planner

Search our weather history database for the weather conditions in past years. The results will help you decide how hot, cold, wet, or windy it might be!

Date:

Astronomy

Nov. 13, 2011 Rise Set
Actual Time 6:42 AM EST 4:57 PM EST
Civil Twilight 6:14 AM EST 5:25 PM EST
Nautical Twilight 5:43 AM EST 5:56 PM EST
Astronomical Twilight 5:12 AM EST 6:27 PM EST
Moon 7:06 PM EST (11/13) 9:10 AM EST (11/13)
Length of Visible Light 11h 10m
Length of Day
10h 15m
Waning Gibbous, 93% of the Moon is Illuminated
Nov 13
Waning Gibbous
Nov 18
Last Quarter
Nov 25
New
Dec 2
First Quarter
Dec 10
Full

Hourly Weather History & Observations

Time (EST) Temp. Windchill Dew Point Humidity Pressure Visibility Wind Dir Wind Speed Gust Speed Precip Events Conditions
12:54 AM 48.9 °F - 34.0 °F 56% 30.22 in 10.0 mi SW 10.4 mph - N/A   Clear
1:54 AM 48.9 °F - 35.1 °F 59% 30.23 in 10.0 mi SW 10.4 mph - N/A   Clear
2:54 AM 48.2 °F - 35.6 °F 62% 30.23 in 10.0 mi SW 10.4 mph - N/A   Clear
3:54 AM 46.0 °F 41.9 °F 35.1 °F 66% 30.23 in 10.0 mi SSW 8.1 mph - N/A   Clear
4:54 AM 45.0 °F 40.6 °F 35.1 °F 68% 30.24 in 10.0 mi SSW 8.1 mph - N/A   Clear
5:54 AM 45.0 °F 41.2 °F 35.1 °F 68% 30.23 in 10.0 mi SW 6.9 mph - N/A   Clear
6:54 AM 46.4 °F 41.5 °F 37.4 °F 71% 30.25 in 10.0 mi SSW 10.4 mph - N/A   Clear
7:54 AM 48.9 °F - 37.0 °F 64% 30.25 in 10.0 mi SSW 6.9 mph - N/A   Clear
8:54 AM 55.0 °F - 37.0 °F 51% 30.25 in 10.0 mi SSW 12.7 mph 19.6 mph N/A   Clear
9:54 AM 57.9 °F - 36.0 °F 44% 30.25 in 10.0 mi SW 12.7 mph - N/A   Clear
10:54 AM 63.0 °F - 34.0 °F 34% 30.23 in 10.0 mi SW 17.3 mph - N/A   Clear
11:54 AM 64.9 °F - 34.0 °F 32% 30.19 in 10.0 mi SW 18.4 mph 26.5 mph N/A   Clear
12:54 PM 66.0 °F - 30.9 °F 27% 30.16 in 10.0 mi SW 19.6 mph 28.8 mph N/A   Clear
1:54 PM 66.0 °F - 35.1 °F 32% 30.13 in 10.0 mi SW 15.0 mph 21.9 mph N/A   Clear
2:54 PM 66.0 °F - 39.9 °F 38% 30.11 in 10.0 mi SSW 15.0 mph - N/A   Clear
3:54 PM 64.9 °F - 44.1 °F 47% 30.12 in 10.0 mi SSW 12.7 mph - N/A   Clear
4:54 PM 63.0 °F - 42.1 °F 46% 30.11 in 10.0 mi SSW 11.5 mph - N/A   Clear
5:54 PM 62.1 °F - 43.0 °F 50% 30.13 in 10.0 mi SW 9.2 mph - N/A   Clear
6:54 PM 55.9 °F - 44.1 °F 64% 30.14 in 10.0 mi SSW 5.8 mph - N/A   Clear
7:54 PM 57.9 °F - 46.0 °F 65% 30.15 in 10.0 mi SSW 6.9 mph - N/A   Clear
8:54 PM 57.0 °F - 46.9 °F 69% 30.14 in 10.0 mi SW 9.2 mph - N/A   Clear
9:54 PM 57.0 °F - 48.0 °F 72% 30.14 in 10.0 mi SW 8.1 mph - N/A   Clear
10:54 PM 55.0 °F - 48.0 °F 77% 30.13 in 10.0 mi SW 8.1 mph - N/A   Clear
11:54 PM 55.0 °F - 48.0 °F 77% 30.12 in 10.0 mi SSW 8.1 mph - N/A   Clear